Location: Fernhill
(41.0167°S, 175.6333°E)
Time: 02:04:39
(UTC+00:00)

Cosmos 1428 Rocket - Pass Details

Date: 08 November 2025
Orbit: 948 x 986 km, 82.9° (Epoch: 14 December)

Event Time Altitude Azimuth Distance (km) Brightness Sun altitude
Exits shadow 08:37:57 - 3° (N) 2,879 6.6 -15.6°
Reaches altitude 10° 08:38:19 10° 3° (N) 2,744 6.5 -15.6°
Maximum altitude 08:44:36 72° 86° (E) 1,046 4.5 -16.5°
Drops below altitude 10° 08:50:55 10° 168° (SSE) 2,767 7.3 -17.4°
Sets 08:53:28 0° 170° (S) 3,717 8.0 -17.8°
